Wind_Speed
55 54 54 50 47 46 49 51 53 53 50 43 41 42 39 39 40 32 34 36 30 27 31 24 26 25 26 31 25 25 23 21 18 16 17 17 16 14 11 10 10 11 9 9 11 13 11 14 14
58 57 57 55 56 53 55 53 54 55 51 52 46 45 45 43 39 39 42 40 35 40 26 34 32 28 25 34 27 24 21 22 20 19 17 18 17 17 15 12 12 12 13 14 15 16 18 17 13
56 56 55 57 59 60 60 53 50 58 54 55 53 50 48 42 43 45 45 41 35 46 34 39 34 31 29 35 27 26 20 21 22 21 20 20 19 18 15 14 14 15 16 17 17 19 15 18 17
54 56 56 56 60 64 66 56 58 58 58 56 56 57 52 50 51 50 50 48 45 48 37 38 37 36 32 34 34 20 26 31 27 23 21 23 23 22 20 18 18 18 18 20 22 22 17 19 23
53 55 56 58 62 63 66 68 62 61 62 62 58 59 57 57 56 54 53 53 52 51 47 43 42 43 39 33 33 28 23 30 25 28 27 23 25 24 24 22 24 22 21 21 24 25 22 22 27
50 54 57 60 63 66 67 70 65 68 64 66 63 60 60 60 63 58 56 56 55 52 52 48 50 41 43 37 37 39 34 29 34 31 35 28 26 26 26 25 25 25 22 24 25 26 28 28 29
42 50 57 60 66 64 68 68 70 70 71 70 67 65 65 68 64 64 63 61 58 56 53 55 57 56 43 43 43 40 40 41 41 40 42 32 30 32 28 27 23 21 23 27 26 26 27 26 26
40 46 48 55 64 66 69 71 71 74 74 77 75 75 74 68 63 69 67 65 65 60 57 57 60 57 46 50 50 48 48 44 42 44 41 35 41 36 24 28 26 24 26 27 28 33 30 30 26
41 43 46 52 55 61 70 75 76 77 77 80 80 80 79 71 77 76 70 69 69 66 62 61 62 60 59 53 49 50 49 47 47 48 46 42 39 34 29 29 23 25 22 26 29 30 33 33 34
47 48 48 49 55 61 66 71 79 81 80 82 84 83 82 79 78 77 75 74 73 72 69 66 64 62 60 62 56 49 50 53 52 51 50 45 47 41 44 37 36 29 30 32 35 38 35 36 38
51 54 53 55 58 60 62 66 71 77 83 86 86 87 89 90 87 84 83 82 77 77 71 70 70 67 64 65 64 59 51 55 55 52 52 50 46 46 46 47 43 38 37 40 41 38 37 39 39
52 55 58 61 64 66 66 67 69 72 77 85 88 89 92 92 93 93 89 87 82 80 80 77 72 72 71 69 65 64 62 50 58 60 56 55 49 48 47 43 43 47 45 42 42 41 42 44 43
40 42 46 52 61 68 73 76 77 77 78 80 84 90 94 97 94 96 95 91 88 84 82 83 81 76 76 74 73 66 67 63 52 58 57 57 57 56 50 49 52 48 46 41 40 42 47 48 46
40 42 43 45 52 58 62 71 77 84 83 81 84 88 93 98 101 99 100 99 95 86 86 86 83 84 80 78 75 73 69 68 62 56 57 55 57 55 54 52 53 52 47 43 46 50 52 54 52
48 51 50 50 52 55 58 63 64 81 87 86 89 88 91 95 102 103 103 104 102 94 90 90 86 86 83 82 80 75 73 70 69 64 56 60 58 56 53 55 54 53 49 47 50 53 56 57 55
50 54 55 52 57 57 58 68 64 69 80 85 91 92 92 93 98 102 105 106 106 104 97 93 92 89 88 87 85 82 76 72 69 65 65 57 55 60 57 56 53 53 54 52 51 52 53 52 55
54 54 56 55 54 57 59 61 63 63 75 82 90 95 96 97 98 101 103 106 109 107 101 97 94 93 92 89 88 86 81 76 71 66 65 63 60 56 53 55 55 59 53 51 50 54 56 57 60
55 56 53 52 51 56 54 56 62 60 65 77 83 91 95 98 102 102 102 105 107 109 108 103 99 95 95 92 90 88 82 79 75 71 67 65 64 61 57 57 56 54 52 51 52 57 64 66 66
57 56 52 49 47 49 51 53 58 57 59 69 84 92 94 98 104 108 106 104 105 106 108 106 101 98 97 95 92 90 85 83 78 75 70 67 65 63 61 60 60 59 59 56 54 54 54 54 65
57 58 53 48 46 41 42 49 53 51 53 64 75 88 95 99 100 106 109 107 107 106 106 108 104 102 101 98 96 91 90 88 82 79 74 74 68 66 67 64 64 64 60 61 58 60 65 65 62
56 59 54 47 47 40 37 43 48 46 50 57 70 82 92 101 105 108 113 110 109 107 106 106 105 104 101 100 98 96 92 89 82 78 75 76 75 73 70 70 68 68 65 62 63 63 66 63 60
61 61 53 51 45 38 37 36 40 46 47 50 60 71 82 97 109 112 117 115 113 112 107 104 104 103 100 99 100 98 92 87 84 83 84 80 79 78 74 71 70 69 66 65 61 62 53 52 58
66 62 53 51 44 34 34 34 36 37 41 49 52 58 67 79 90 114 118 121 116 116 111 108 106 103 102 96 95 95 94 90 87 85 82 81 79 77 75 74 72 70 66 64 58 50 51 53 50
65 57 55 50 42 34 31 33 28 29 34 36 47 53 56 61 73 89 113 122 118 116 115 112 108 103 103 97 93 89 87 88 86 84 82 82 81 77 73 73 70 65 60 57 53 52 57 49 43
59 52 46 46 36 35 33 27 25 28 31 31 35 40 47 49 55 65 87 108 122 116 115 113 109 104 102 99 95 90 85 81 80 81 82 83 80 76 73 70 65 56 56 55 51 55 56 47 45
54 46 39 37 34 34 36 24 25 31 32 31 30 32 40 42 39 51 62 83 100 121 118 114 113 109 102 101 97 93 88 81 76 76 78 78 76 70 69 66 61 58 55 55 54 49 44 46 43
47 44 37 32 29 29 30 20 24 31 34 34 29 28 31 23 30 41 46 69 77 89 118 117 112 109 105 101 98 94 88 81 76 73 70 71 70 67 63 62 60 55 53 57 56 43 42 45 48
45 37 34 28 27 28 26 21 27 35 36 39 31 26 21 13 17 33 35 57 58 69 89 115 112 111 109 102 98 94 89 81 75 72 68 63 59 57 57 56 56 61 51 51 45 45 51 51 48
37 32 30 25 22 21 18 22 27 33 34 34 34 23 16 7 12 28 27 43 50 57 78 105 117 110 107 102 97 95 90 85 77 71 65 60 55 55 51 52 56 54 50 53 50 48 49 47 48
35 32 24 21 20 13 13 23 28 38 38 42 37 20 15 3 4 23 19 27 40 53 68 92 113 108 104 104 96 93 90 84 79 70 63 65 60 56 56 53 58 59 53 57 52 52 53 51 52
Wind_Direction
238 238 235 233 230 231 228 234 232 227 229 225 227 231 231 227 229 210 230 219 216 221 230 244 250 255 260 246 223 214 208 210 213 208 200 211 218 206 207 232 254 262 263 268 270 288 291 312 313
238 239 236 235 235 236 234 231 232 229 224 231 225 229 232 229 225 227 229 226 212 211 202 216 233 246 259 248 223 213 221 220 216 218 211 220 222 224 211 221 248 261 261 262 268 280 285 310 310
237 238 238 236 236 240 236 230 234 229 230 231 228 230 231 228 232 230 231 229 218 216 215 219 232 234 247 226 226 227 226 223 218 221 226 221 226 234 235 230 234 242 252 263 274 287 300 306 303
238 239 238 238 239 240 238 231 240 233 230 232 231 230 225 234 235 231 234 234 234 231 217 221 229 231 238 241 250 250 232 233 223 226 227 238 227 226 235 243 250 255 259 269 286 295 296 301 290
237 239 239 240 240 242 239 238 239 237 231 232 228 229 225 233 233 235 236 236 238 240 236 216 224 233 236 243 244 238 244 243 254 248 227 230 240 239 237 243 249 256 268 284 290 298 294 297 297
240 238 238 237 240 240 240 238 238 238 233 232 230 227 228 231 233 236 236 238 236 239 240 229 218 225 231 240 236 239 249 243 252 276 250 239 242 247 253 260 263 271 278 284 287 289 291 295 297
240 241 240 240 240 239 241 237 240 238 235 232 234 231 229 227 231 238 239 237 236 236 238 239 229 231 226 235 239 239 246 249 252 255 256 246 240 250 249 250 255 264 270 277 289 292 292 291 292
248 245 242 242 242 241 242 240 240 238 238 236 232 235 232 229 233 239 239 238 238 236 237 233 239 242 232 226 230 241 245 248 249 256 257 262 254 249 251 264 254 265 271 279 284 289 284 294 294
253 250 247 245 244 243 242 241 240 236 237 236 237 237 235 226 234 234 236 239 237 237 235 238 239 240 239 230 231 235 244 243 251 255 255 254 266 267 262 266 263 267 273 280 289 290 289 287 290
256 254 249 247 246 244 243 242 241 240 237 237 237 237 234 227 232 235 234 239 238 236 237 237 240 244 240 237 240 232 241 243 246 250 253 256 257 261 261 264 264 267 274 282 285 292 293 294 289
259 257 253 250 249 247 247 247 245 244 240 238 237 236 234 234 233 237 237 238 241 240 238 238 240 242 246 245 245 241 234 236 241 244 249 251 255 262 262 266 263 269 276 281 286 294 292 297 293
264 263 260 256 253 250 248 247 245 245 244 240 237 237 234 234 237 237 237 236 237 242 242 242 241 242 243 245 247 247 237 233 235 242 245 250 252 258 259 256 269 274 277 282 285 289 293 297 301
276 274 269 265 260 256 253 249 246 245 243 243 240 238 237 234 234 237 236 235 237 239 241 242 242 241 241 244 246 247 247 249 235 235 241 246 250 256 256 262 267 271 276 281 281 284 289 294 297
293 290 281 275 271 264 258 254 251 251 245 241 241 239 238 237 235 235 236 235 236 236 238 240 241 242 242 242 244 244 246 248 249 242 241 242 247 252 253 260 265 267 268 270 274 280 284 288 291
298 296 292 289 280 274 264 258 254 252 248 244 242 240 238 236 237 234 236 236 236 235 234 239 239 239 239 241 243 244 243 246 249 247 245 243 242 248 253 257 261 259 261 269 272 277 280 283 286
298 299 294 289 280 278 272 263 256 254 248 244 242 241 240 238 237 236 235 234 235 236 234 235 238 238 237 238 240 242 244 243 246 248 249 246 246 249 253 255 259 258 263 269 272 275 279 283 284
299 297 296 286 288 282 275 265 264 252 247 244 241 240 240 238 237 237 235 234 234 234 234 232 235 237 238 236 238 240 241 243 242 245 248 251 254 253 253 255 258 257 262 270 277 280 281 280 281
303 302 300 286 291 285 272 267 266 259 248 244 241 239 239 238 238 237 236 235 233 233 233 232 231 234 238 236 237 238 239 242 243 242 243 246 250 253 254 258 261 263 270 274 278 280 276 281 285
306 305 304 293 292 285 275 271 267 265 256 244 237 237 235 234 235 238 237 235 234 232 232 231 231 232 236 238 238 239 238 238 239 241 241 243 246 250 253 256 260 265 268 274 275 277 280 281 286
309 307 307 299 297 282 277 274 273 268 257 249 244 236 235 231 231 235 235 233 232 232 231 230 229 230 232 235 237 238 238 238 237 241 243 244 246 249 251 254 258 263 268 270 276 277 280 284 288
312 312 312 305 303 287 281 286 285 273 259 249 242 242 234 231 230 230 231 231 231 231 229 229 228 228 231 233 234 236 239 239 238 240 242 244 245 246 249 253 257 262 266 271 272 277 284 279 284
314 314 313 310 303 295 292 300 285 276 270 262 254 249 243 234 229 229 230 229 227 229 228 228 228 228 227 231 234 235 236 238 238 237 238 241 244 247 249 253 255 260 263 268 273 278 274 276 286
316 313 312 309 305 304 298 302 275 282 278 268 263 257 251 245 241 230 229 230 224 227 226 227 226 226 227 228 231 235 235 236 238 239 240 241 244 247 249 252 255 261 266 270 274 265 269 281 289
315 312 313 307 307 304 306 303 301 298 291 282 277 268 260 252 246 241 232 231 227 223 225 224 224 224 226 226 229 233 235 237 237 239 240 241 242 245 249 252 256 263 267 267 259 261 278 281 280
313 312 308 305 309 306 307 308 313 323 313 297 296 289 275 261 250 244 239 235 229 224 222 222 221 221 222 224 226 229 231 235 237 237 239 241 243 246 249 254 257 260 258 261 259 272 276 275 280
315 313 307 306 311 306 314 310 308 326 323 310 311 302 278 274 264 246 239 239 234 226 222 220 220 218 220 220 223 225 229 231 234 237 238 240 242 244 249 251 253 253 255 259 266 268 270 275 283
318 312 311 314 306 304 313 319 327 328 331 320 314 314 287 278 266 256 240 234 236 227 225 220 219 217 218 218 220 224 226 229 231 234 234 237 240 243 246 250 251 246 254 260 263 265 271 276 286
318 314 313 314 307 314 311 315 328 330 339 328 327 319 309 265 254 239 231 233 234 226 223 220 216 218 217 217 219 222 224 225 228 232 233 234 237 237 240 244 247 249 249 252 255 268 277 284 288
318 311 318 309 311 317 321 329 334 346 343 338 335 340 311 305 302 258 231 223 227 219 219 213 213 215 216 215 217 220 223 224 226 230 235 234 227 229 234 233 239 240 243 251 257 266 276 286 289
318 314 317 313 317 311 320 322 338 345 343 345 341 347 337 300 254 276 212 216 221 214 213 209 212 211 215 215 216 219 223 226 228 229 230 229 228 224 221 228 235 240 245 252 258 266 269 282 290
Height
10906 10911 10916 10920 10925 10927 10928 10931 10934 10941 10945 10952 10954 10954 10956 10957 10958 10968 10965 10966 10968 10970 10972 10974 10975 10977 10979 10978 10981 10983 10984 10985 10986 10986 10986 10988 10989 10989 10990 10993 10995 10996 10996 10996 10995 10994 10994 10993 10992
10899 10903 10908 10913 10916 10919 10920 10923 10930 10933 10941 10943 10948 10949 10950 10953 10960 10962 10957 10959 10962 10965 10967 10969 10970 10973 10974 10974 10977 10978 10980 10983 10984 10985 10984 10986 10987 10987 10986 10990 10992 10994 10994 10993 10993 10993 10992 10991 10990
10891 10895 10900 10904 10907 10908 10912 10918 10925 10926 10933 10935 10940 10943 10945 10952 10951 10949 10952 10955 10958 10959 10962 10964 10966 10968 10971 10971 10972 10975 10976 10978 10981 10983 10984 10983 10985 10986 10986 10987 10989 10990 10991 10992 10992 10991 10990 10989 10988
10883 10887 10892 10895 10897 10897 10903 10911 10912 10916 10923 10926 10931 10933 10938 10941 10940 10943 10944 10948 10951 10952 10957 10960 10962 10964 10967 10969 10971 10972 10972 10972 10974 10978 10980 10983 10981 10981 10983 10984 10985 10987 10989 10989 10989 10989 10988 10986 10984
10874 10878 10882 10885 10886 10886 10893 10899 10906 10906 10911 10914 10920 10924 10930 10930 10931 10934 10938 10941 10944 10946 10949 10953 10956 10958 10961 10964 10967 10968 10969 10971 10972 10974 10975 10977 10980 10979 10979 10980 10982 10984 10984 10985 10985 10985 10985 10985 10983
10866 10868 10870 10874 10874 10877 10883 10886 10894 10894 10900 10904 10909 10915 10921 10926 10920 10926 10929 10932 10935 10937 10940 10946 10948 10952 10955 10958 10962 10964 10966 10968 10972 10973 10972 10974 10976 10977 10979 10980 10980 10981 10982 10982 10982 10982 10981 10980 10978
10856 10857 10859 10861 10862 10867 10866 10879 10877 10883 10888 10891 10899 10906 10907 10910 10916 10916 10917 10922 10925 10929 10932 10934 10939 10942 10950 10954 10957 10959 10962 10965 10967 10971 10972 10973 10973 10974 10975 10977 10978 10978 10979 10979 10979 10978 10977 10977 10974
10847 10848 10850 10850 10850 10857 10856 10864 10865 10870 10874 10877 10884 10886 10889 10900 10917 10904 10906 10912 10913 10921 10924 10929 10928 10934 10942 10947 10950 10953 10956 10959 10963 10965 10969 10971 10971 10970 10971 10974 10975 10976 10976 10976 10976 10975 10973 10972 10969
10837 10838 10839 10840 10841 10841 10840 10843 10847 10854 10858 10863 10866 10872 10874 10890 10887 10889 10898 10900 10904 10910 10914 10918 10922 10926 10930 10936 10943 10947 10951 10954 10957 10960 10963 10966 10967 10968 10969 10970 10971 10972 10972 10972 10971 10969 10969 10968 10966
10825 10826 10828 10830 10828 10826 10826 10826 10828 10835 10842 10846 10850 10854 10861 10869 10874 10882 10888 10888 10893 10898 10903 10909 10913 10917 10924 10927 10932 10940 10943 10947 10951 10953 10956 10959 10962 10963 10964 10966 10967 10967 10968 10967 10965 10964 10963 10963 10960
10814 10813 10815 10815 10812 10812 10812 10815 10816 10819 10826 10830 10835 10840 10845 10852 10862 10868 10873 10876 10881 10886 10895 10899 10904 10908 10913 10918 10922 10927 10933 10939 10942 10945 10949 10953 10954 10957 10960 10962 10962 10962 10963 10962 10960 10958 10957 10956 10954
10802 10802 10801 10800 10798 10796 10798 10798 10800 10802 10805 10810 10819 10822 10828 10836 10840 10844 10852 10861 10868 10874 10880 10886 10895 10899 10904 10907 10911 10916 10922 10929 10934 10938 10943 10946 10948 10950 10954 10956 10955 10957 10957 10956 10954 10953 10950 10949 10947
10788 10788 10786 10784 10780 10778 10779 10777 10779 10782 10783 10792 10799 10803 10809 10816 10823 10824 10834 10845 10854 10860 10864 10870 10879 10884 10891 10896 10901 10907 10911 10916 10924 10929 10934 10937 10942 10944 10947 10949 10949 10950 10951 10950 10948 10946 10944 10942 10941
10775 10773 10770 10767 10762 10759 10760 10759 10767 10757 10764 10773 10773 10780 10788 10794 10801 10807 10815 10826 10837 10844 10848 10853 10865 10869 10876 10883 10889 10895 10901 10906 10913 10920 10924 10928 10932 10935 10939 10940 10940 10942 10942 10942 10940 10938 10937 10934 10932
10760 10756 10753 10751 10745 10740 10739 10733 10743 10733 10742 10752 10753 10758 10764 10769 10775 10786 10794 10805 10814 10822 10830 10837 10845 10853 10861 10870 10875 10882 10890 10896 10902 10909 10916 10920 10923 10924 10929 10930 10931 10933 10933 10933 10931 10930 10929 10927 10924
10747 10740 10735 10731 10727 10718 10716 10707 10713 10717 10715 10724 10729 10735 10744 10750 10753 10762 10769 10780 10789 10799 10811 10820 10825 10834 10844 10854 10860 10869 10877 10885 10892 10899 10905 10911 10915 10915 10919 10921 10922 10922 10924 10923 10921 10921 10919 10917 10914
10733 10727 10717 10712 10705 10697 10690 10686 10687 10692 10690 10697 10702 10707 10715 10724 10730 10735 10741 10754 10764 10776 10788 10801 10809 10817 10825 10838 10844 10854 10865 10873 10880 10889 10894 10900 10904 10905 10909 10911 10912 10912 10914 10914 10913 10912 10909 10906 10903
10714 10706 10701 10693 10686 10675 10669 10670 10658 10664 10671 10675 10681 10684 10690 10700 10706 10710 10720 10731 10743 10755 10767 10781 10793 10802 10806 10820 10828 10837 10852 10860 10870 10878 10884 10889 10893 10895 10898 10900 10901 10903 10904 10904 10903 10902 10900 10899 10896
10700 10692 10684 10675 10670 10659 10652 10644 10639 10644 10650 10648 10649 10652 10660 10668 10676 10682 10697 10708 10719 10732 10743 10760 10776 10787 10790 10802 10815 10824 10838 10842 10854 10864 10873 10876 10881 10884 10887 10890 10891 10893 10894 10894 10893 10893 10890 10889 10886
10682 10673 10668 10659 10653 10646 10638 10626 10621 10623 10622 10621 10623 10625 10631 10639 10648 10653 10664 10681 10692 10707 10720 10737 10752 10764 10772 10784 10796 10807 10817 10827 10840 10849 10862 10863 10871 10873 10875 10879 10879 10881 10883 10884 10883 10883 10882 10880 10876
10665 10656 10648 10640 10633 10625 10624 10608 10601 10600 10596 10597 10598 10598 10604 10609 10619 10624 10628 10648 10665 10681 10698 10712 10728 10741 10756 10768 10776 10789 10801 10815 10831 10842 10847 10850 10856 10858 10862 10867 10870 10871 10874 10874 10873 10874 10871 10870 10867
10647 10637 10631 10624 10616 10611 10603 10595 10587 10580 10578 10577 10575 10574 10579 10580 10587 10597 10599 10616 10638 10652 10673 10691 10709 10721 10736 10747 10761 10775 10789 10803 10815 10822 10825 10835 10842 10847 10852 10857 10860 10860 10864 10864 10866 10864 10860 10860 10858
10629 10619 10614 10607 10599 10597 10587 10584 10576 10567 10562 10557 10554 10554 10556 10560 10565 10573 10578 10582 10608 10626 10646 10667 10685 10703 10716 10733 10746 10760 10776 10786 10798 10808 10821 10824 10832 10836 10843 10846 10849 10852 10857 10854 10853 10853 10850 10851 10850
10616 10606 10595 10589 10585 10581 10578 10570 10562 10558 10550 10542 10534 10534 10537 10540 10546 10550 10564 10561 10581 10601 10620 10640 10663 10684 10699 10719 10732 10746 10762 10772 10784 10796 10807 10810 10815 10824 10830 10834 10840 10843 10842 10844 10843 10843 10842 10841 10839
10601 10595 10586 10574 10574 10568 10565 10558 10554 10545 10537 10531 10525 10519 10517 10517 10522 10525 10532 10543 10558 10579 10596 10618 10641 10665 10683 10704 10718 10732 10745 10756 10769 10779 10787 10797 10806 10813 10818 10826 10831 10833 10832 10835 10835 10836 10834 10832 10829
10585 10581 10573 10566 10563 10557 10552 10550 10544 10536 10530 10522 10517 10512 10499 10506 10514 10507 10509 10514 10528 10556 10576 10599 10618 10645 10667 10686 10704 10718 10731 10745 10756 10765 10774 10784 10794 10802 10808 10816 10821 10822 10824 10827 10827 10826 10825 10822 10820
10574 10564 10560 10557 10553 10548 10545 10542 10537 10531 10522 10513 10507 10499 10496 10499 10491 10490 10487 10495 10508 10529 10554 10581 10602 10629 10652 10675 10690 10706 10720 10734 10746 10754 10764 10772 10783 10794 10796 10807 10811 10812 10816 10818 10818 10816 10815 10812 10810
10561 10555 10550 10549 10544 10540 10535 10535 10529 10524 10514 10505 10498 10490 10486 10486 10474 10464 10471 10480 10494 10512 10528 10560 10588 10610 10635 10660 10682 10696 10709 10724 10736 10746 10754 10766 10777 10781 10789 10795 10801 10803 10805 10806 10806 10805 10805 10804 10803
10556 10549 10544 10540 10538 10535 10531 10528 10524 10516 10509 10500 10489 10487 10473 10472 10468 10457 10464 10467 10481 10496 10511 10537 10564 10593 10624 10651 10669 10687 10700 10714 10726 10738 10749 10761 10763 10771 10779 10786 10791 10793 10793 10794 10796 10795 10796 10794 10792
10545 10541 10538 10533 10531 10529 10528 10522 10517 10509 10500 10491 10482 10480 10467 10465 10458 10447 10457 10463 10475 10488 10503 10525 10551 10585 10612 10639 10662 10681 10695 10712 10718 10729 10741 10746 10752 10763 10768 10776 10779 10782 10782 10784 10787 10787 10787 10784 10781